Location: Caltech
(34.1382°N, 118.1253°W)
Time: 03:16:17
(UTC-07:00)

ITAMSAT 1 - Visible Passes

Search period start: 31 August 2014 00:00
Search period end: 10 September 2014 00:00
Orbit: 784 x 799 km, 98.7° (Epoch: 30 August)

Date Brightness Start Highest point End Pass type
(mag) Time Alt. Az. Time Alt. Az. Time Alt. Az.
31 Aug 9.6 02:58:07 10° NNE 03:00:16 25° NNE 03:00:16 25° NNE visible
31 Aug 9.8 04:40:01 10° NW 04:41:01 12° NW 04:41:01 12° NW visible
01 Sep 10.2 02:29:26 10° NNE 02:30:44 17° NE 02:30:44 17° NE visible
01 Sep 9.4 04:09:19 10° NNW 04:11:29 20° NW 04:11:29 20° NW visible
02 Sep 9.3 03:39:36 10° N 03:41:57 26° NNW 03:41:57 26° NNW visible
03 Sep 9.5 03:10:20 10° NNE 03:12:25 25° NNE 03:12:25 25° NNE visible
04 Sep 10.1 02:41:27 10° NNE 02:42:53 18° NE 02:42:53 18° NE visible
04 Sep 9.6 04:22:02 10° NNW 04:23:38 15° NW 04:23:38 15° NW visible
05 Sep 10.6 02:13:08 10° NE 02:13:21 11° NE 02:13:21 11° NE visible
05 Sep 9.4 03:52:03 10° N 03:54:05 22° NNW 03:54:05 22° NNW visible
06 Sep 9.6 03:22:36 10° N 03:24:33 23° N 03:24:33 23° N visible
07 Sep 10.0 02:53:34 10° NNE 02:55:01 19° NNE 02:55:01 19° NNE visible
07 Sep 9.8 04:35:00 10° NNW 04:35:46 12° NW 04:35:46 12° NW visible
08 Sep 10.5 02:24:58 10° NE 02:25:28 12° NE 02:25:28 12° NE visible
08 Sep 9.6 04:04:35 10° NNW 04:06:13 18° NNW 04:06:13 18° NNW visible
09 Sep 9.6 03:34:57 10° N 03:36:41 21° N 03:36:41 21° N visible
